Theta_e
321 321 321 321 322 322 322 322 322 322 322 322 323 323 323 324 323 317 306 313 316 331 321 313 313 311 312 310 309 307 302 298 299 298 301 304 303 305 306 306 306 308 309 311 310
320 320 321 321 321 321 322 322 322 321 321 321 322 322 323 323 315 309 321 325 331 326 312 310 308 309 308 307 309 306 301 300 303 303 302 304 303 305 304 305 306 306 310 309 309
320 320 320 320 321 321 322 322 322 322 322 321 321 322 322 322 306 305 325 328 334 322 313 310 310 308 305 307 307 305 300 304 302 303 303 302 303 305 304 302 306 306 309 311 308
320 320 320 320 320 321 322 322 322 322 322 321 321 321 322 315 298 305 330 331 331 314 311 309 308 305 303 302 305 301 304 304 304 303 303 302 304 303 304 305 309 310 311 310 308
320 320 320 320 320 321 322 322 323 323 322 322 321 321 315 303 305 322 329 331 315 311 309 308 305 305 301 302 302 301 303 304 305 304 303 304 303 303 304 307 309 309 307 307 308
320 320 320 319 320 321 322 322 323 323 322 322 321 320 306 297 311 325 326 315 312 310 308 308 306 307 302 301 301 301 301 302 302 302 303 300 302 301 303 307 306 306 306 308 307
320 320 319 319 321 321 322 322 322 322 321 321 321 317 303 304 313 320 316 314 311 311 307 307 307 305 304 300 302 301 298 300 301 300 300 301 298 298 304 305 303 305 306 307 307
320 319 319 319 320 321 322 322 322 321 321 320 321 315 301 307 314 313 310 307 309 308 307 308 308 305 303 303 300 297 296 293 299 297 299 300 294 301 304 301 302 304 305 306 307
319 319 319 320 320 320 321 321 319 322 321 321 314 304 300 311 305 308 308 305 307 306 307 306 307 302 301 297 295 296 292 293 294 298 297 298 295 301 302 301 301 303 304 304 305
319 319 319 320 320 321 321 316 317 318 319 318 311 300 303 300 305 304 306 306 304 305 303 303 302 298 297 295 289 293 291 292 291 298 296 294 294 298 301 300 300 302 303 304 304
320 320 320 320 321 322 314 309 309 306 305 301 301 299 300 304 306 303 304 304 303 301 296 299 295 292 296 297 297 294 292 292 295 298 294 294 295 297 299 300 300 301 302 303 304
320 321 321 320 321 319 310 306 303 303 300 304 303 302 303 305 300 301 305 300 299 295 296 294 292 297 298 295 293 293 291 292 295 296 293 294 293 296 299 299 300 301 303 303 303
321 320 320 321 320 316 308 304 308 306 300 303 301 299 300 303 300 301 302 299 297 293 294 294 297 296 294 293 291 293 290 292 292 294 294 292 293 295 299 299 300 302 302 302 301
319 319 320 320 316 314 308 307 309 305 299 299 297 298 299 300 296 300 301 299 296 294 294 294 296 293 291 291 293 290 296 293 291 289 287 293 286 295 299 299 299 301 300 300 301
316 318 319 320 316 314 308 308 308 303 288 296 294 303 300 296 296 297 300 299 294 294 294 294 291 291 291 292 293 291 293 291 290 289 288 290 286 294 294 295 296 298 299 300 300
312 315 317 317 317 311 310 309 304 296 287 296 295 294 295 295 294 297 297 299 297 293 293 293 294 294 294 293 293 293 292 291 289 288 284 291 288 291 293 294 297 297 297 297 297
310 312 316 317 313 312 314 313 295 288 299 294 293 293 293 292 292 293 293 293 292 290 290 293 293 294 293 291 292 291 289 285 286 284 285 288 286 290 296 296 294 294 293 294 294
307 310 315 317 313 313 312 302 287 293 296 301 299 298 296 294 294 292 291 295 291 293 291 289 288 290 293 293 294 289 290 286 280 283 287 289 285 291 297 295 294 294 294 294 293
307 313 311 315 314 314 307 292 291 294 298 297 296 294 295 294 293 295 294 296 296 293 291 289 289 293 291 293 294 289 287 294 286 287 282 287 292 295 294 293 293 293 293 291 291
303 304 305 313 315 310 299 292 295 300 301 299 292 296 291 294 291 292 294 295 292 293 294 293 287 295 294 291 291 290 292 284 285 278 278 284 287 288 290 292 292 291 289 289 289
301 295 302 314 313 301 290 291 294 300 301 296 294 293 294 292 293 291 292 295 294 292 293 293 289 290 292 289 289 287 286 287 287 285 280 279 285 292 290 288 288 288 287 287 287
299 289 305 312 295 296 290 292 295 295 298 298 298 296 293 293 291 290 290 294 298 297 293 296 289 284 288 295 296 294 291 291 284 282 284 283 283 295 290 287 287 285 285 286 286
294 294 304 307 288 291 293 293 295 293 293 293 293 295 295 291 287 291 292 294 295 295 292 294 288 283 284 287 291 288 288 288 286 284 281 279 282 295 293 290 285 284 284 284 284
292 286 293 299 298 291 290 289 289 294 294 294 292 295 292 289 291 288 289 292 292 290 293 294 287 285 280 284 287 283 286 285 282 278 280 280 281 285 287 284 282 281 282 283 284
290 286 290 287 290 291 291 288 287 287 292 294 291 291 289 285 286 286 288 288 288 287 287 289 282 285 285 286 283 282 281 281 279 280 276 278 279 283 282 281 281 282 281 281 283
286 286 288 286 286 287 289 287 285 287 288 286 286 287 287 285 286 283 284 284 285 284 283 283 280 279 276 281 281 278 280 280 280 279 278 279 278 282 282 283 281 281 280 280 282
289 290 287 282 284 284 284 285 284 286 283 285 284 284 282 285 287 286 286 285 285 282 280 280 279 275 273 279 275 271 275 278 279 280 279 274 278 279 277 278 279 280 280 280 281
Wind_Speed
9 10 10 10 10 10 9 9 9 9 9 10 11 11 11 11 6 3 7 3 5 13 8 9 3 4 2 3 1 2 5 6 5 6 2 4 5 4 2 7 6 9 7 3 6
8 8 8 9 9 9 9 10 9 9 9 9 10 10 10 10 3 8 3 6 10 14 10 12 8 6 3 3 3 5 4 5 4 5 5 4 6 6 6 11 15 12 14 8 6
6 7 7 8 8 9 9 10 10 10 10 10 10 11 10 5 5 2 4 8 14 8 5 3 7 5 5 3 6 4 7 6 6 11 6 7 8 6 11 15 18 16 9 9 11
6 6 7 8 8 9 10 11 11 10 10 10 10 11 11 3 7 2 1 10 11 7 9 7 7 5 5 7 5 6 12 11 4 3 4 7 5 11 14 23 23 20 15 14 12
6 6 6 7 9 10 11 12 12 11 10 10 9 9 3 3 8 2 7 11 10 8 10 8 8 6 7 5 4 9 10 10 11 9 11 11 20 18 21 23 24 20 14 17 17
6 6 7 7 8 11 12 14 14 13 13 11 8 7 3 10 3 5 8 8 7 10 8 8 6 5 3 5 8 2 7 12 10 14 12 11 23 3 15 11 15 13 17 15 15
6 6 7 8 9 11 13 14 16 15 12 8 6 3 4 14 2 5 6 3 5 8 6 4 4 6 4 4 3 5 12 15 15 9 10 9 13 18 22 10 15 17 15 13 14
6 6 6 7 9 12 13 13 12 9 7 3 7 3 8 2 4 4 4 3 2 2 1 2 4 2 4 2 3 6 4 10 2 5 3 10 17 21 8 6 13 18 21 20 22
6 6 8 8 10 13 15 13 2 7 8 10 4 3 7 3 1 1 2 3 5 3 4 5 4 2 2 8 8 7 12 13 11 7 3 12 14 11 6 11 25 25 24 21 22
6 7 8 10 11 13 16 4 4 3 3 2 2 3 3 2 2 3 2 7 4 8 5 2 3 6 4 8 12 13 9 9 10 6 9 14 19 20 23 23 26 26 24 20 18
6 7 8 9 11 13 8 1 3 2 1 4 4 5 4 2 1 2 1 4 4 3 8 3 9 13 19 20 21 13 17 21 19 16 16 23 24 18 21 24 27 23 20 15 13
5 7 8 9 10 12 4 3 3 4 9 9 14 9 2 2 3 2 3 6 5 7 7 4 13 16 11 8 10 16 22 22 19 14 6 19 26 24 24 21 21 19 15 11 11
4 5 8 8 9 3 3 3 3 2 6 6 2 3 2 5 4 4 8 4 5 7 11 18 10 1 12 14 14 18 16 19 22 15 14 13 15 4 8 8 11 10 8 7 8
2 3 4 4 3 1 2 3 4 0 6 2 1 1 1 0 3 1 1 1 3 8 7 11 5 7 3 8 15 19 14 16 15 9 8 7 11 13 16 16 9 10 15 14 14
5 2 2 1 1 2 3 4 6 3 7 3 1 1 2 1 2 5 1 2 6 3 4 4 3 3 7 11 8 7 4 5 4 8 9 5 8 3 4 4 7 14 13 16 16
5 3 4 3 1 1 4 3 3 1 7 1 1 1 2 1 3 1 2 2 1 2 3 13 1 4 5 4 6 1 4 6 2 4 10 12 9 2 1 5 4 10 15 22 22
5 3 4 2 1 5 1 3 2 6 1 2 2 2 3 5 3 4 4 5 1 6 4 7 6 3 3 5 3 5 7 5 6 6 8 7 3 7 9 4 14 17 17 16 15
4 3 3 1 4 5 2 2 9 3 5 2 1 2 5 5 3 3 4 6 6 7 5 4 7 6 6 8 10 7 7 4 6 8 15 5 9 6 1 16 18 17 17 19 20
3 1 1 4 7 3 2 7 6 7 6 5 3 6 5 3 2 4 7 9 4 14 9 5 10 2 6 3 5 6 9 12 10 9 8 11 14 10 10 11 12 13 13 16 16
2 2 3 4 7 1 4 14 10 6 4 3 9 6 13 5 3 2 4 1 2 5 1 2 11 7 2 1 3 5 1 4 3 5 11 15 11 9 10 3 7 11 13 14 14
3 2 0 6 4 2 8 8 7 9 8 7 13 12 8 3 7 6 9 6 3 2 5 4 5 13 0 8 11 3 5 2 2 4 6 8 7 5 8 5 6 6 9 12 13
4 3 2 6 6 4 10 5 3 5 2 3 2 8 10 6 10 10 12 8 3 5 4 5 3 7 13 17 16 13 17 16 12 11 10 11 16 2 11 10 6 5 6 7 8
4 1 0 3 8 9 4 4 5 5 7 4 5 5 2 4 4 9 10 4 8 2 2 3 4 6 6 5 3 2 4 5 4 3 15 17 14 3 11 7 6 3 4 5 4
2 4 2 3 3 8 12 9 12 3 8 9 7 5 4 8 7 8 5 2 2 4 7 2 3 8 12 17 8 9 13 5 2 5 7 10 12 19 22 9 4 3 5 4 5
0 3 1 6 8 10 10 3 5 7 3 4 5 7 5 4 2 6 3 2 4 7 3 2 10 13 15 16 11 10 10 14 16 15 10 14 22 25 10 9 5 6 8 8 5
3 3 2 1 1 7 13 12 16 15 7 8 9 3 3 7 9 8 4 3 7 2 2 0 4 2 6 8 14 16 19 22 21 22 24 26 27 6 4 10 13 13 14 12 8
1 1 1 2 4 6 5 7 4 7 1 1 1 3 3 4 1 1 3 3 4 4 3 4 4 4 15 13 11 12 19 21 21 23 19 17 5 3 3 9 14 17 15 16 13
Wind_Direction
45 41 40 38 32 26 22 16 12 4 357 349 345 341 339 340 308 186 239 195 179 159 126 136 140 129 149 121 131 209 227 240 237 196 199 182 242 168 288 263 219 199 245 349 116
35 33 29 25 21 17 10 2 358 352 346 339 334 329 332 337 285 250 239 169 148 157 148 169 168 161 166 155 184 229 240 248 239 224 244 233 238 279 245 249 253 244 241 224 183
15 15 15 11 5 358 352 348 343 339 335 330 324 320 323 312 290 247 127 167 160 170 152 136 141 174 207 195 192 181 243 249 234 242 260 275 266 248 256 267 258 268 269 245 225
354 356 356 354 350 344 337 333 329 325 322 317 315 316 316 242 292 119 335 162 155 158 135 141 157 182 224 221 188 240 241 245 273 226 245 258 286 259 244 260 275 286 286 271 238
331 334 334 338 335 330 326 323 317 311 305 303 304 316 275 220 248 109 123 134 150 168 182 171 179 187 220 216 202 237 257 258 252 257 258 280 266 265 265 261 273 278 269 263 260
316 324 325 324 322 322 320 316 315 311 301 287 283 306 226 255 89 135 128 142 174 183 183 183 226 216 254 236 221 343 271 277 271 255 244 245 268 258 266 260 277 273 272 267 260
301 313 319 318 315 314 311 313 315 312 303 279 230 247 234 256 67 132 144 168 176 189 176 202 160 195 160 251 263 300 294 293 265 260 234 220 266 233 260 280 276 282 281 280 256
292 302 311 314 312 309 307 316 320 315 322 173 170 210 252 56 117 147 165 97 119 121 198 156 169 153 242 352 259 273 247 280 295 179 181 196 268 281 293 288 287 289 289 284 280
284 293 309 315 317 312 313 321 357 53 88 127 155 240 262 145 201 96 189 149 116 88 61 109 165 217 191 243 267 226 268 250 288 225 142 208 282 275 265 290 292 287 282 280 282
291 306 316 319 319 314 319 301 166 136 136 232 110 236 218 320 99 91 57 143 128 135 117 151 160 210 207 216 247 265 245 245 258 284 254 272 261 279 284 287 279 279 283 287 287
285 300 306 311 318 323 334 195 246 189 173 244 250 268 262 101 159 90 133 126 119 163 195 169 215 211 225 227 249 291 274 276 278 284 293 285 294 297 286 276 273 281 283 295 290
254 282 295 304 315 325 305 52 47 4 293 244 251 261 311 356 287 111 172 187 187 200 139 180 237 237 261 286 268 267 273 278 279 275 286 294 298 293 272 276 272 280 293 294 309
247 276 291 291 321 323 48 101 133 137 261 284 219 227 312 192 216 235 196 149 199 188 207 243 262 246 216 241 261 252 261 274 283 306 275 297 284 283 305 281 269 294 297 338 18
18 351 300 314 271 47 103 127 133 128 268 244 128 84 139 75 119 354 266 297 177 257 219 257 301 250 224 245 243 275 264 268 278 292 285 2 292 303 281 285 355 28 41 55 67
60 347 322 153 86 241 92 168 145 204 287 39 93 267 171 125 131 42 352 173 246 219 214 274 174 171 214 236 208 264 8 293 278 268 301 233 260 324 281 309 70 61 56 46 39
45 15 180 146 175 118 145 144 244 215 240 37 52 281 154 66 93 101 69 59 25 238 240 270 322 245 248 191 198 157 262 262 229 251 257 255 221 59 140 63 65 65 53 35 31
17 346 189 172 136 151 173 241 263 230 313 174 173 205 184 162 156 151 155 165 272 327 321 310 245 241 237 244 163 229 281 302 259 216 268 109 234 289 273 348 54 67 60 49 44
355 275 189 281 138 148 201 176 223 282 269 332 218 230 273 176 186 157 154 250 200 216 283 256 288 191 180 233 246 176 203 214 269 279 292 354 257 246 166 72 52 46 38 36 31
355 92 208 200 164 195 180 232 223 168 184 220 161 245 243 209 271 216 237 255 219 192 209 231 257 266 224 221 202 153 203 228 249 267 272 249 253 229 96 76 60 43 33 30 27
109 151 234 169 163 150 222 236 235 210 160 184 241 244 270 238 216 295 278 36 196 195 261 260 284 214 288 221 247 251 89 187 217 244 256 267 258 256 184 268 55 26 23 20 20
125 173 98 157 156 184 234 242 263 251 239 254 263 259 256 230 196 210 239 258 216 182 193 250 234 271 302 211 234 168 197 182 175 196 251 269 246 89 119 58 22 40 28 26 24
145 194 141 171 179 202 229 206 212 262 350 262 278 250 253 262 276 264 259 244 141 162 230 202 194 247 239 270 257 255 245 244 241 217 215 243 265 51 117 84 63 60 37 11 9
158 109 297 209 204 211 205 215 226 201 227 224 242 231 211 229 256 234 246 55 22 280 270 56 251 257 267 188 79 268 311 312 312 319 244 263 260 20 309 350 65 35 359 353 359
139 152 225 221 240 220 222 244 230 182 231 231 239 230 245 264 245 263 261 87 45 37 50 38 279 258 267 283 340 263 258 237 253 256 286 252 287 297 305 351 57 347 331 291 320
279 214 307 186 216 221 207 189 194 207 231 220 205 230 220 234 231 249 268 330 63 3 50 236 259 265 271 282 293 261 257 268 268 266 254 281 279 279 329 328 334 315 337 330 306
179 185 143 132 209 177 218 232 242 234 253 227 251 229 232 241 243 266 280 218 273 84 124 308 267 243 267 253 264 280 272 263 265 264 262 264 270 10 334 319 323 332 338 333 303
152 11 325 127 169 180 211 221 192 160 95 170 132 143 221 260 202 126 225 247 265 235 179 252 247 267 267 289 316 273 250 263 268 269 280 276 317 123 356 331 322 317 318 318 303